Groton, South Dakota, United States (57445)
Lat: 45.45N, Lon: 98.1W
Wx Zone: SDZ006
Local Info
Past Weather Observations for Saturday, October 18, 2014

NOTE: This archive is for the closest National Weather Service station to Groton. Information may differ from the station used for current weather conditions.

Click here for Long-term Archive

Time Weather Temperature Dewpoint Humidity Pressure Winds Precip Visibility
23:53
Clear
46°F / 8°C 37°F / 3°C 71% 29.92 in
(1013 mb)
S 10.4 mph
(S 17 kph)
- 10SM
22:53
Clear
48°F / 9°C 37°F / 3°C 66% 29.92 in
(1013 mb)
S 15 mph
(S 24 kph)
- 10SM
21:53
Clear
46°F / 8°C 39°F / 4°C 76% 29.95 in
(1014 mb)
S 13.8 mph
(S 22 kph)
- 10SM
20:53
Clear
48°F / 9°C 39°F / 4°C 71% 29.98 in
(1015 mb)
S 11.5 mph
(S 19 kph)
- 10SM
19:53
Clear
48°F / 9°C 39°F / 4°C 71% 29.98 in
(1015 mb)
S 12.7 mph
(S 20 kph)
- 10SM
18:53
Clear
48°F / 9°C 39°F / 4°C 71% 30.01 in
(1016 mb)
SSE 10.4 mph
(SSE 17 kph)
- 10SM
17:53
Clear
50°F / 10°C 39°F / 4°C 67% 30.04 in
(1017 mb)
SSE 10.4 mph
(SSE 17 kph)
- 10SM
16:53
Clear
54°F / 12°C 39°F / 4°C 58% 30.04 in
(1017 mb)
SSE 12.7 mph
(SSE 20 kph)
- 10SM
15:53
Clear
55°F / 13°C 39°F / 4°C 55% 30.06 in
(1018 mb)
S 12.7 mph
(S 20 kph)
- 10SM
14:53
Clear
54°F / 12°C 39°F / 4°C 58% 30.09 in
(1019 mb)
SSE 13.8 mph
(SSE 22 kph)
- 10SM
13:53
Clear
52°F / 11°C 39°F / 4°C 62% 30.12 in
(1020 mb)
S 10.4 mph
(S 17 kph)
- 10SM
13:32
Partly Cloudy
50°F / 10°C 39°F / 4°C 67% 30.15 in
(1021 mb)
SSE 10.4 mph
(SSE 17 kph)
- 10SM
13:00
Overcast
46°F / 8°C 39°F / 4°C 76% 30.15 in
(1021 mb)
S 10.4 mph
(S 17 kph)
- 10SM
12:53
Overcast
46°F / 8°C 37°F / 3°C 71% 30.18 in
(1022 mb)
S 11.5 mph
(S 19 kph)
- 10SM
11:53
Overcast
45°F / 7°C 37°F / 3°C 76% 30.21 in
(1023 mb)
S 10.4 mph
(S 17 kph)
- 10SM
11:03
Overcast
45°F / 7°C 37°F / 3°C 76% 30.21 in
(1023 mb)
S 9.2 mph
(S 15 kph)
- 10SM
10:53
Overcast
43°F / 6°C 37°F / 3°C 81% 30.21 in
(1023 mb)
S 9.2 mph
(S 15 kph)
- 10SM
09:53
Overcast
43°F / 6°C 37°F / 3°C 81% 30.24 in
(1024 mb)
SW 10.4 mph
(SW 17 kph)
- 10SM
08:53
Overcast
43°F / 6°C 37°F / 3°C 81% 30.24 in
(1024 mb)
SSE 9.2 mph
(SSE 15 kph)
- 10SM
07:53
Overcast
43°F / 6°C 37°F / 3°C 81% 30.24 in
(1024 mb)
SSE 4.6 mph
(SSE 7 kph)
- 10SM
06:53
Overcast
41°F / 5°C 37°F / 3°C 87% 30.24 in
(1024 mb)
SSE 5.8 mph
(SSE 9 kph)
- 10SM
05:53
Overcast
41°F / 5°C 37°F / 3°C 87% 30.24 in
(1024 mb)
Calm - 10SM
04:53
Overcast
43°F / 6°C 37°F / 3°C 81% 30.24 in
(1024 mb)
NNW 3.5 mph
(NNW 6 kph)
- 10SM
04:06
Overcast
43°F / 6°C 37°F / 3°C 81% 30.24 in
(1024 mb)
NE 4.6 mph
(NE 7 kph)
- 10SM
03:53
Overcast
43°F / 6°C 37°F / 3°C 81% 30.24 in
(1024 mb)
NE 4.6 mph
(NE 7 kph)
- 10SM
02:53
Overcast
43°F / 6°C 37°F / 3°C 81% 30.24 in
(1024 mb)
N 4.6 mph
(N 7 kph)
- 10SM
01:53
Overcast
43°F / 6°C 37°F / 3°C 81% 30.24 in
(1024 mb)
N 3.5 mph
(N 6 kph)
- 10SM
00:53
Overcast
43°F / 6°C 37°F / 3°C 81% 30.21 in
(1023 mb)
N 4.6 mph
(N 7 kph)
- 10SM
Time Weather Temperature Dewpoint Humidity Pressure Winds Precip Visibility


Weather for websites

WeatherForYou.com, LLC is not responsible for any damages or problems caused by this service. Current weather conditions are obtained from the closest station including government and personal stations which may have varying degrees of accuracy. Weather forecasts are derived from the NOAA NDFD. Like all things, this site belongs to Jesus Christ... He just trusts me to maintain it. If you have any questions or comments email webmaster@weatherforyou.com

Copyright © 2014, WeatherForYou.com LLC. All rights reserved.